Wind_Speed
29 29 29 29 29 29 26 26 26 26 26 24 24 24 24 25 24 24 21 21 21 21 21 20 20 20 19 19 18 18 18 17 17 16 16 16 16 16 15 15 15 15 15 15 15 15 15 15 15
29 29 30 30 30 28 26 26 27 27 26 25 26 26 26 26 25 25 23 22 21 21 21 21 20 20 20 20 19 19 19 19 18 18 18 17 17 17 17 17 17 16 16 17 17 17 17 18 18
30 30 30 30 29 28 27 28 29 28 26 27 27 27 27 26 25 25 24 24 22 22 22 21 21 21 21 20 20 20 20 20 20 19 19 19 19 19 18 18 18 18 18 19 19 19 19 20 20
31 31 31 31 28 28 29 29 28 27 27 28 28 28 27 26 26 26 25 24 23 23 22 22 22 21 21 21 21 21 21 21 21 21 21 21 20 20 20 20 20 20 20 21 21 21 22 22 23
32 32 32 31 28 28 29 30 28 28 29 29 29 29 28 27 27 27 26 25 24 24 24 23 23 23 23 22 22 22 23 22 22 22 22 22 22 22 22 22 22 22 23 23 24 24 24 25 25
33 33 33 31 29 30 30 30 30 30 30 31 31 29 28 28 27 27 27 26 25 25 25 25 24 24 24 23 23 23 23 23 23 23 23 23 23 23 24 24 24 25 25 25 25 25 26 26 26
34 34 34 32 32 32 31 31 32 31 32 32 31 30 29 29 28 28 28 27 26 26 26 26 25 25 25 25 25 24 24 24 24 24 24 24 25 25 25 25 26 26 26 26 26 26 27 28 28
35 35 34 33 33 32 32 33 33 32 32 32 32 31 29 29 30 30 29 28 28 28 27 27 27 27 26 26 26 26 26 26 25 25 25 25 26 26 26 26 27 27 27 27 28 28 29 29 30
36 36 34 33 34 34 33 33 33 33 33 32 33 31 30 31 31 31 30 30 29 29 29 28 28 28 28 28 27 27 27 27 27 26 26 26 27 27 27 27 28 28 28 29 29 30 30 31 31
37 36 34 34 34 34 34 34 33 33 33 33 33 32 31 32 31 32 31 31 31 30 30 30 29 29 29 29 29 28 28 28 28 28 28 28 28 28 28 29 29 29 30 30 30 31 31 31 32
37 36 34 35 34 35 35 34 34 34 34 33 33 33 32 32 32 33 32 32 32 32 32 31 31 31 31 30 30 30 30 30 29 29 29 29 29 29 29 29 29 30 30 30 31 32 32 33 33
38 37 36 35 35 36 35 35 35 34 34 34 33 33 33 33 33 33 33 33 33 33 33 33 33 32 32 32 31 31 31 31 31 31 30 30 30 30 30 30 30 31 31 32 33 33 34 35 35
39 38 37 37 37 37 36 36 36 35 34 34 34 34 34 34 34 34 34 33 33 33 33 33 32 32 32 32 32 31 31 31 31 31 31 31 31 31 31 31 31 32 33 33 34 34 35 36 36
40 39 38 38 37 37 37 37 36 34 35 34 35 34 34 34 33 34 33 33 32 32 32 32 32 32 32 32 31 32 32 32 32 32 32 32 31 31 32 32 33 33 34 34 35 35 36 37 38
41 40 39 38 37 37 38 38 36 35 36 35 35 34 34 34 33 33 33 32 32 32 32 32 32 32 32 32 32 32 32 32 32 32 32 32 33 33 33 34 34 35 36 36 37 38 38 39 40
42 42 41 38 38 38 39 37 36 36 36 35 35 34 34 34 34 33 33 32 32 32 31 32 32 32 33 33 33 33 32 32 32 33 33 33 34 34 35 35 36 36 37 37 38 39 40 41 42
43 42 41 40 39 40 40 38 36 36 36 36 35 35 35 34 34 34 33 33 32 32 32 32 32 33 32 32 33 32 32 32 32 33 33 34 34 35 36 36 37 37 38 39 40 41 42 42 43
41 41 41 41 40 41 41 39 37 37 37 36 36 35 35 35 35 35 34 34 33 33 32 33 33 33 32 32 32 32 33 33 33 33 34 35 35 36 37 38 38 39 40 41 42 43 44 44 45
43 43 42 42 41 42 42 40 39 38 38 37 37 36 36 35 36 35 35 34 34 33 33 33 33 33 33 32 32 32 32 33 33 33 34 35 36 37 38 39 40 40 42 43 44 44 45 46 47
45 44 44 43 43 43 43 42 40 40 39 38 38 38 37 37 37 36 36 35 35 34 34 33 33 33 33 32 33 33 33 33 34 35 35 36 37 38 39 40 41 42 43 44 45 45 46 47 48
46 45 44 44 44 45 44 43 41 40 40 39 38 38 38 37 37 37 36 36 35 35 34 34 33 33 33 33 33 34 34 34 35 36 36 37 38 39 40 41 42 43 44 45 45 46 47 47 48
46 45 45 44 45 45 45 44 41 40 40 39 38 38 37 37 37 37 36 35 35 35 34 34 34 34 34 34 34 34 35 35 35 36 37 38 39 40 41 42 43 44 45 45 46 47 48 49 50
45 44 44 44 46 46 45 45 42 40 40 39 38 37 37 36 37 37 36 35 35 35 35 35 35 35 35 35 35 35 35 36 37 37 38 39 40 41 42 43 44 45 46 46 47 48 50 51 52
45 45 45 45 46 48 44 45 44 40 39 38 38 37 36 36 36 36 36 36 36 36 36 36 36 36 36 36 36 36 37 37 38 39 39 40 42 43 44 45 46 46 47 47 49 50 51 52 52
46 45 45 46 48 48 44 45 45 40 38 38 37 36 36 36 36 36 36 36 36 36 36 37 37 37 37 37 37 37 38 38 39 40 41 42 43 44 45 46 47 47 48 49 50 50 51 52 53
46 45 46 46 47 46 46 46 44 41 39 38 37 36 36 36 37 37 36 36 36 36 37 37 37 37 38 38 38 39 39 40 41 42 43 44 45 46 47 47 47 48 49 49 50 51 52 53 54
48 47 45 45 46 46 46 46 44 42 40 38 37 36 36 36 37 37 37 37 37 37 37 37 37 38 38 39 39 40 41 42 43 44 44 45 46 47 47 47 48 49 50 51 51 52 54 55 55
47 46 45 45 45 45 45 45 44 42 41 40 38 37 36 36 37 37 38 37 37 37 37 38 38 38 39 40 41 41 42 43 44 44 45 46 47 48 48 48 49 50 51 52 53 54 55 56 56
45 46 46 46 45 45 44 44 42 42 41 40 39 38 37 37 37 37 37 37 37 37 38 38 39 39 40 41 41 42 43 44 44 45 46 47 48 48 48 49 50 51 52 53 54 55 56 57 57
44 45 45 45 45 45 45 44 41 41 41 40 39 39 38 38 38 38 38 38 38 38 38 39 39 40 40 41 42 43 44 44 45 46 47 48 48 48 49 50 51 52 53 55 56 56 57 57 57
Wind_Direction
237 238 238 238 239 240 241 240 241 240 241 242 244 245 247 249 252 255 254 251 251 251 252 252 253 254 254 255 255 255 256 257 257 257 259 259 261 263 266 268 269 270 272 274 275 277 278 279 279
236 237 238 238 240 240 240 240 241 241 240 241 242 243 245 247 249 253 253 251 251 252 252 253 254 254 254 254 254 255 256 257 257 258 259 261 263 265 266 267 268 270 271 272 275 275 277 278 279
235 236 238 239 239 240 240 239 239 239 239 239 241 243 244 246 249 252 252 252 251 251 251 252 253 254 254 255 255 256 256 257 258 259 260 262 264 266 267 267 268 270 272 274 275 275 275 276 277
236 237 238 239 238 238 240 242 242 241 239 239 240 242 243 245 247 249 251 251 250 250 251 252 253 253 254 255 255 256 258 259 260 261 261 262 264 266 267 268 270 271 273 275 276 276 276 277 277
237 237 238 238 237 238 240 241 241 240 240 240 241 241 243 244 245 247 249 250 250 250 251 252 253 253 254 255 256 258 259 260 261 261 262 263 265 266 268 270 271 272 273 275 276 276 276 277 278
238 238 238 238 237 237 239 240 241 240 241 242 242 242 242 244 245 247 249 250 250 250 251 252 253 254 254 254 256 258 260 261 261 262 263 264 266 267 269 270 272 273 274 275 276 276 276 277 277
238 238 238 237 236 237 238 239 240 241 242 242 244 243 243 244 246 247 249 250 251 252 253 253 253 254 254 255 257 258 260 261 262 263 264 265 267 268 269 271 272 273 275 276 276 276 277 277 277
238 238 238 237 237 238 238 238 240 242 243 244 244 244 244 246 246 247 249 250 251 252 252 253 253 254 255 256 257 259 260 261 262 263 265 266 268 269 270 272 273 274 275 276 276 277 277 278 278
237 238 237 237 238 239 238 239 240 242 244 244 245 245 245 246 247 248 249 250 251 252 252 253 254 255 256 257 258 259 260 261 263 264 265 266 267 269 270 272 273 275 276 277 277 277 278 278 278
237 238 237 237 237 239 238 239 241 242 243 244 245 246 245 246 247 248 249 250 251 252 253 253 254 256 257 258 259 260 261 262 264 265 266 267 268 269 271 272 273 275 276 277 278 279 279 279 280
237 237 236 236 237 239 238 239 241 242 243 244 246 247 246 247 247 249 250 251 252 253 254 254 256 257 258 259 260 261 262 263 264 265 266 267 268 270 271 273 274 275 277 278 279 279 280 280 281
237 236 236 236 237 239 239 240 241 242 243 244 246 247 248 248 248 249 251 252 253 254 255 256 257 257 258 259 260 261 262 263 264 266 267 268 269 270 272 274 275 277 278 279 280 280 281 281 282
236 236 236 237 237 239 240 241 241 243 245 245 246 247 248 248 249 250 251 252 253 254 255 255 256 257 258 259 260 261 263 264 265 266 267 268 269 271 272 275 277 278 279 280 281 282 282 282 282
237 237 236 237 238 239 240 241 242 243 245 246 247 247 248 248 249 249 251 252 252 253 254 255 256 257 259 260 261 262 263 265 266 267 268 269 270 271 273 276 277 279 280 280 281 282 283 283 283
237 237 236 237 239 240 241 241 243 243 245 246 247 247 247 248 248 249 250 251 252 253 254 255 256 258 259 261 262 263 264 265 266 267 268 269 270 272 274 276 278 279 280 281 282 283 284 284 284
238 238 238 237 239 240 241 241 242 243 244 245 246 246 247 247 248 249 249 250 252 253 254 255 256 258 260 261 262 263 264 265 266 267 268 270 271 273 275 277 278 279 281 282 283 284 285 285 285
238 239 240 239 239 241 242 242 241 242 244 245 245 246 247 248 248 249 249 250 252 253 254 256 257 258 260 261 262 263 264 266 267 268 269 270 272 274 276 277 279 280 282 283 284 285 286 286 286
240 241 241 241 240 241 242 242 242 242 243 244 245 246 247 248 249 249 250 251 252 253 254 256 258 259 260 261 262 263 265 267 268 269 270 272 273 275 277 278 280 281 283 285 286 286 287 287 287
240 240 240 241 241 241 242 242 242 242 243 244 245 247 248 249 249 250 250 251 252 253 255 257 258 259 260 261 262 264 266 267 269 270 272 273 275 276 278 280 281 283 285 286 287 288 288 288 288
239 240 241 241 242 242 242 242 242 243 244 245 246 247 248 249 250 250 251 252 253 254 255 256 258 260 260 261 263 264 266 268 269 271 273 274 276 278 280 282 283 285 286 287 288 288 289 290 290
239 240 241 242 243 244 243 242 241 242 244 246 247 248 249 250 251 251 251 252 254 255 255 256 258 259 260 262 263 265 267 269 271 272 274 276 278 280 281 283 285 287 288 289 289 290 290 290 291
238 239 241 242 243 244 244 244 240 242 244 246 247 249 250 251 251 251 251 252 254 255 255 256 257 259 260 262 264 265 267 270 272 274 276 277 280 281 283 284 286 288 289 289 290 290 291 291 292
238 238 240 241 243 244 244 246 241 242 244 245 247 249 251 251 251 251 251 252 253 254 255 256 257 259 261 262 265 267 269 271 274 275 277 278 281 283 284 286 288 289 289 289 290 291 291 292 292
236 237 238 240 242 244 243 247 245 242 244 245 247 248 249 250 250 251 252 253 253 253 254 255 257 259 261 263 265 268 270 272 275 276 278 280 282 284 286 287 288 289 289 289 290 291 292 293 293
234 235 237 240 241 244 244 246 247 245 244 245 246 247 248 249 250 251 252 253 253 253 254 255 257 259 262 264 266 268 271 273 276 277 279 281 283 285 286 288 288 289 289 290 291 292 293 294 294
234 235 238 241 244 245 245 246 247 246 245 245 245 246 247 249 251 252 253 253 253 254 255 256 257 259 262 264 266 268 272 275 277 278 280 281 283 285 286 288 288 289 289 290 291 292 294 295 295
233 234 237 241 243 246 247 247 247 247 246 246 246 246 247 249 251 253 253 253 254 255 256 256 257 260 262 264 267 270 273 276 278 279 280 282 284 286 287 288 288 289 289 290 291 292 294 295 296
235 235 235 237 241 244 247 248 247 247 248 247 247 247 249 250 251 253 254 254 255 255 256 257 258 260 263 265 267 270 274 277 278 280 281 283 285 286 287 287 288 289 290 291 292 293 294 295 296
234 234 235 237 240 242 245 247 248 249 249 249 248 249 250 250 251 252 253 255 255 256 257 258 259 261 264 266 269 272 274 277 278 280 282 284 286 286 287 287 288 289 290 291 292 294 295 295 296
234 235 235 236 239 241 244 247 248 250 251 251 251 250 250 251 252 252 252 254 256 257 258 259 260 262 264 267 270 272 274 277 279 281 283 285 285 285 286 287 289 290 291 292 293 294 295 295 296
Height
5800 5802 5805 5807 5810 5812 5815 5818 5819 5821 5823 5826 5827 5829 5831 5833 5835 5838 5839 5840 5841 5843 5844 5845 5846 5848 5849 5850 5851 5852 5853 5854 5855 5856 5856 5857 5857 5858 5858 5859 5859 5859 5859 5860 5860 5860 5860 5860 5860
5795 5797 5800 5802 5805 5808 5812 5813 5814 5816 5819 5822 5823 5825 5827 5828 5830 5832 5834 5835 5838 5839 5840 5842 5843 5844 5846 5847 5848 5849 5850 5851 5852 5853 5853 5854 5855 5855 5856 5856 5856 5856 5857 5857 5857 5857 5857 5857 5857
5790 5792 5795 5798 5800 5804 5807 5807 5809 5811 5815 5817 5819 5821 5823 5825 5827 5828 5830 5831 5834 5836 5837 5838 5840 5841 5842 5843 5845 5846 5847 5848 5849 5849 5850 5851 5851 5852 5852 5853 5853 5853 5854 5854 5854 5854 5854 5854 5854
5785 5788 5790 5794 5797 5799 5800 5802 5804 5807 5810 5812 5814 5816 5819 5821 5823 5824 5825 5828 5830 5832 5833 5834 5836 5837 5839 5840 5841 5842 5843 5844 5845 5846 5846 5847 5848 5848 5849 5849 5849 5850 5850 5850 5850 5850 5850 5850 5850
5779 5782 5785 5788 5792 5794 5795 5797 5800 5802 5805 5807 5809 5812 5814 5817 5818 5820 5821 5824 5826 5828 5829 5830 5832 5833 5835 5836 5837 5838 5839 5840 5841 5842 5843 5843 5844 5844 5845 5845 5846 5846 5846 5846 5846 5846 5846 5846 5846
5774 5777 5780 5783 5786 5788 5790 5792 5795 5797 5799 5801 5804 5807 5810 5812 5814 5816 5817 5819 5822 5823 5825 5826 5828 5829 5831 5832 5833 5834 5835 5836 5837 5838 5838 5839 5840 5840 5841 5841 5841 5841 5841 5841 5841 5841 5841 5841 5841
5769 5771 5774 5778 5780 5782 5785 5787 5789 5792 5794 5796 5799 5802 5805 5807 5810 5811 5813 5815 5817 5819 5820 5822 5823 5825 5826 5828 5829 5830 5831 5832 5833 5833 5834 5835 5835 5836 5836 5836 5836 5837 5836 5836 5836 5836 5836 5835 5835
5761 5765 5768 5771 5774 5777 5779 5781 5783 5786 5789 5792 5794 5797 5801 5803 5804 5806 5808 5810 5812 5814 5816 5817 5819 5820 5822 5823 5824 5825 5826 5827 5828 5829 5829 5830 5830 5831 5831 5831 5831 5831 5831 5831 5831 5830 5830 5830 5829
5754 5759 5762 5766 5768 5770 5773 5775 5778 5781 5783 5786 5788 5792 5796 5797 5799 5801 5803 5805 5807 5809 5811 5812 5814 5815 5817 5818 5819 5820 5821 5822 5823 5824 5824 5825 5825 5826 5826 5826 5826 5826 5826 5825 5825 5825 5824 5824 5823
5747 5752 5757 5759 5761 5764 5767 5770 5773 5775 5777 5780 5783 5786 5789 5791 5793 5795 5798 5800 5802 5804 5805 5807 5809 5810 5812 5813 5814 5815 5816 5817 5818 5818 5819 5820 5820 5820 5820 5820 5820 5820 5820 5819 5819 5819 5818 5817 5817
5741 5746 5750 5752 5755 5758 5760 5764 5766 5769 5772 5775 5777 5780 5783 5785 5787 5790 5792 5794 5796 5798 5800 5801 5803 5804 5806 5807 5808 5810 5810 5811 5812 5813 5813 5814 5814 5814 5815 5815 5814 5814 5814 5813 5813 5812 5811 5811 5810
5735 5739 5742 5745 5748 5751 5754 5757 5760 5763 5766 5768 5771 5774 5776 5779 5781 5784 5786 5788 5790 5792 5794 5795 5797 5798 5800 5801 5802 5804 5805 5805 5806 5807 5807 5808 5808 5809 5809 5809 5808 5808 5807 5807 5806 5805 5804 5804 5803
5727 5731 5734 5738 5741 5744 5747 5750 5753 5757 5759 5762 5765 5768 5770 5773 5775 5777 5779 5782 5784 5786 5787 5789 5790 5792 5793 5795 5796 5797 5798 5799 5800 5801 5801 5802 5802 5802 5802 5802 5802 5801 5800 5800 5799 5798 5797 5796 5795
5719 5723 5727 5730 5734 5737 5740 5744 5747 5751 5753 5755 5758 5761 5763 5766 5768 5771 5773 5775 5777 5779 5781 5782 5784 5785 5787 5788 5789 5791 5792 5793 5793 5794 5795 5795 5795 5795 5795 5795 5795 5794 5793 5792 5791 5790 5789 5788 5786
5711 5715 5719 5723 5727 5730 5733 5737 5741 5744 5746 5749 5751 5754 5757 5759 5762 5764 5767 5769 5771 5773 5774 5776 5777 5779 5780 5782 5783 5784 5785 5786 5787 5787 5788 5788 5788 5788 5788 5788 5787 5786 5785 5784 5783 5782 5780 5779 5777
5703 5707 5711 5717 5719 5723 5727 5731 5735 5736 5739 5742 5745 5747 5750 5753 5755 5758 5760 5762 5764 5766 5768 5769 5771 5772 5774 5775 5776 5777 5778 5779 5780 5780 5780 5781 5781 5781 5781 5780 5779 5778 5777 5776 5775 5773 5771 5770 5768
5695 5699 5704 5709 5712 5715 5718 5723 5727 5729 5731 5735 5738 5740 5743 5746 5748 5751 5753 5755 5758 5760 5761 5763 5764 5766 5767 5768 5769 5770 5771 5772 5772 5773 5773 5773 5773 5773 5773 5772 5771 5770 5769 5767 5766 5764 5762 5760 5757
5689 5692 5696 5699 5703 5706 5710 5715 5719 5721 5724 5727 5730 5733 5736 5739 5741 5744 5746 5749 5751 5753 5755 5756 5758 5759 5760 5761 5762 5763 5764 5765 5765 5765 5765 5765 5765 5765 5764 5764 5762 5761 5760 5758 5756 5754 5751 5749 5747
5679 5683 5687 5691 5694 5698 5701 5706 5710 5713 5717 5720 5723 5726 5729 5732 5734 5737 5739 5742 5744 5746 5748 5749 5751 5752 5753 5754 5755 5756 5757 5757 5758 5758 5758 5758 5757 5757 5756 5755 5753 5752 5750 5748 5746 5743 5741 5738 5735
5669 5673 5678 5682 5685 5688 5692 5697 5702 5705 5709 5712 5715 5718 5721 5724 5726 5729 5732 5734 5737 5739 5741 5742 5743 5745 5746 5747 5748 5749 5749 5750 5750 5750 5750 5749 5749 5748 5747 5746 5744 5742 5740 5738 5735 5732 5730 5727 5723
5659 5665 5669 5673 5676 5679 5683 5688 5694 5698 5700 5704 5707 5710 5713 5716 5719 5721 5724 5727 5729 5731 5733 5735 5736 5737 5738 5739 5740 5741 5742 5742 5742 5742 5742 5741 5740 5739 5738 5736 5734 5732 5730 5727 5724 5721 5718 5716 5712
5650 5656 5660 5663 5666 5670 5674 5678 5686 5689 5692 5696 5699 5702 5705 5707 5710 5713 5716 5718 5721 5723 5725 5727 5728 5729 5730 5731 5732 5733 5734 5734 5734 5734 5733 5732 5731 5730 5728 5726 5724 5722 5719 5717 5714 5710 5707 5704 5700
5641 5646 5650 5654 5656 5660 5664 5668 5677 5681 5684 5688 5691 5694 5697 5699 5701 5704 5707 5710 5712 5714 5716 5718 5719 5721 5722 5723 5724 5725 5725 5726 5725 5725 5724 5723 5722 5720 5718 5716 5714 5711 5708 5705 5702 5699 5695 5691 5688
5631 5637 5640 5643 5646 5650 5658 5660 5666 5672 5677 5680 5683 5686 5688 5691 5693 5696 5698 5701 5703 5705 5707 5709 5711 5712 5714 5715 5716 5716 5717 5717 5716 5716 5715 5714 5712 5710 5708 5705 5703 5700 5697 5694 5691 5687 5683 5679 5675
5621 5627 5631 5633 5635 5641 5649 5651 5657 5664 5668 5671 5675 5678 5680 5682 5685 5687 5689 5692 5694 5696 5698 5700 5702 5704 5705 5706 5707 5707 5707 5707 5707 5706 5705 5704 5702 5700 5697 5694 5691 5688 5685 5682 5679 5675 5671 5667 5662
5611 5617 5622 5626 5629 5635 5639 5641 5649 5655 5659 5662 5666 5669 5672 5674 5676 5679 5681 5683 5685 5687 5689 5691 5693 5695 5696 5697 5698 5698 5698 5698 5697 5696 5694 5693 5691 5688 5686 5683 5680 5677 5673 5670 5667 5663 5659 5654 5650
5600 5606 5613 5617 5620 5625 5628 5634 5640 5644 5649 5653 5657 5661 5663 5666 5668 5670 5672 5674 5676 5678 5680 5682 5684 5685 5687 5688 5688 5688 5688 5688 5687 5685 5683 5682 5679 5677 5674 5671 5668 5665 5662 5658 5654 5650 5646 5642 5637
5592 5598 5603 5607 5611 5615 5620 5625 5631 5636 5640 5645 5649 5652 5655 5657 5659 5661 5663 5665 5667 5669 5671 5673 5674 5676 5677 5678 5678 5678 5678 5677 5676 5674 5672 5670 5668 5665 5662 5659 5656 5653 5650 5646 5642 5638 5633 5629 5624
5583 5588 5593 5598 5602 5608 5612 5619 5622 5626 5631 5635 5639 5642 5645 5648 5650 5652 5654 5656 5658 5660 5662 5663 5665 5666 5667 5667 5668 5668 5667 5666 5665 5663 5661 5659 5656 5653 5650 5647 5644 5641 5637 5633 5629 5625 5620 5615 5610
5573 5579 5584 5590 5594 5599 5604 5612 5613 5617 5621 5625 5629 5633 5636 5638 5640 5643 5644 5647 5649 5651 5653 5654 5655 5656 5656 5657 5657 5657 5656 5655 5654 5652 5650 5647 5644 5641 5638 5635 5632 5628 5624 5620 5615 5611 5606 5602 5597